Regional Weather Roundup
Issued by NWS Glasgow, MT

Home | Current Version | Previous Version | Text Only | Print | Product List | Glossary On
Versions: 1 2 3 4 5 6 7 8 9 10 11 12 13 14 15 16 17 18 19 20 21 22 23 24 25 26 27 28 29 30 31 32 33 34 35 36 37 38 39 40 41 42 43 44 45 46 47
000
ASUS45 KGGW 271415
RWRGGW
HOURLY WEATHER ROUNDUP FOR NORTHEAST MONTANA
NATIONAL WEATHER SERVICE GLASGOW MONTANA
700 AM MST THU NOV 27 2014

NOTE: "FAIR" INDICATES FEW OR NO CLOUDS BELOW 12,000 FEET WITH NO
SIGNIFICANT WEATHER AND/OR OBSTRUCTIONS TO VISISBILITY.

NORTHEAST MONTANA


CITY           SKY/WX    TMP DP  RH WIND       PRES   REMARKS
GLASGOW        LGT SNOW  22  18  85 SE24      29.94F FOG
PLENTYWOOD       N/A     11   9  92 SE5         N/A
WOLF POINT     CLOUDY    18  13  80 E14       30.05F
JORDAN           N/A     28  25  88 SE10      29.92F
WINNETT          N/A     35  30  82 S5          N/A
SIDNEY         PTCLDY    19  14  79 CALM      30.14F
GLENDIVE       CLOUDY    21  19  93 SE6       30.06F
MALTA            N/A     29  27  92 E7          N/A
SCOBEY           N/A     17   8  67 CALM      30.01F

FORT PECK REPORTS


CITY           SKY/WX    TMP DP  RH WIND       PRES   REMARKS
FORT PECK        N/A     26  25  96 E20         N/A
THE PINES        N/A     29  27  92 SE8G16      N/A

SOUTHEAST MONTANA


CITY           SKY/WX    TMP DP  RH WIND       PRES   REMARKS
BILLINGS       CLOUDY    30  27  88 SW12      29.93F
MILES CITY     CLOUDY    26  21  81 SE16      29.97F
BAKER          CLOUDY    22  18  85 SE18      30.05F
LIVINGSTON     MOCLDY    46  30  53 SW31G41   29.94F

CENTRAL MONTANA


CITY           SKY/WX    TMP DP  RH WIND       PRES   REMARKS
HAVRE          CLOUDY    30  29  96 E8        29.79F
LEWISTOWN      CLOUDY    42  30  62 SW16      29.86F
GREAT FALLS    PTCLDY    41  31  67 SW15      29.81F
CUT BANK       FOG       26  23  88 SW8       29.73F VSB 1
HELENA         MOCLDY    24  22  91 VRB5      29.92F FOG
BUTTE          CLOUDY    46  29  51 MISG      30.04F
BOZEMAN        CLOUDY    33  29  85 SE8       30.00S

WESTERN MONTANA


CITY           SKY/WX    TMP DP  RH WIND       PRES   REMARKS
MISSOULA       MOCLDY    31  30  96 S5        29.98F FOG
KALISPELL      NOT AVBL

NORTH DAKOTA


CITY           SKY/WX    TMP DP  RH WIND       PRES   REMARKS
WILLISTON      CLOUDY    13   8  81 SE5       30.15F
DICKINSON      CLOUDY    15  12  88 S14       30.12F
MINOT          CLOUDY    -2  -7  79 SE5       30.26F
BISMARCK       PTCLDY    -9 -14  78 E8        30.35S

SOUTHERN SASKATCHEWAN


CITY           SKY/WX    TMP DP  RH WIND       PRES   REMARKS
REGINA         MOCLDY     9   5  85 SE14      30.10F WCI  -8
MOOSE JAW      CLOUDY    16  12  86 SE6       30.07
ESTEVAN        FLURRIES   5   1  85 SE10      30.17F WCI -10
SWIFT CURRENT  LGT SNOW  21  19  93 SE23G30   29.90F



USA.gov is the U.S. government's official web portal to all federal, state and local government web resources and services.